Tracking 33485 objects as of 15-Mar-2026
HD Live streaming from Space Station
objects crossing your sky now

STARLINK-36622

Track STARLINK-36622 now!
10-day predictions
STARLINK-36622 is classified as:


NORAD ID: 67667
Int'l Code: 2026-022V
Perigee: 425.5 km
Apogee: 427.1 km
Inclination: 97.3 °
Period: 93.0 minutes
Semi major axis: 6797 km
RCS: Unknown
Launch date: February 2, 2026
Source: United States (US)
Launch site: AIR FORCE WESTERN TEST RANGE (AFWTR)
Your satellite tracking list
Your tracking list is empty




NASA's NSSDC Master Catalog

Two Line Element Set (TLE):
1 67667U 26022V   26074.25001157  .00019446  00000-0  35861-3 0  9994
2 67667  97.2839 108.4023 0001235  94.5639  52.7478 15.49167103  5978
Source of the keplerian elements: AFSPC